Pensacola - Santa Rosa Island Weather Center

Moon Phase Calendar



Online Cameras

 


      

Current Conditions in Tiger Point
8/4/2021 10:52:59 PM

75°F
Feels Like 77
Clear
Humidity
93%
Pressure
29.97"
Wind
5.8 mph (N)
Dew Point
73°F
UV Index
0/10 (Low)
Visibility
6 mi

Hourly Forecast

Date & Time Wed, Aug 4
10:00 PM
Wed, Aug 4
11:00 PM
Thu, Aug 5
12:00 AM
Thu, Aug 5
1:00 AM
Thu, Aug 5
2:00 AM
Thu, Aug 5
3:00 AM
Thu, Aug 5
4:00 AM
Thu, Aug 5
5:00 AM
Thu, Aug 5
6:00 AM
Thu, Aug 5
7:00 AM
Thu, Aug 5
8:00 AM
Thu, Aug 5
9:00 AM
Thu, Aug 5
10:00 AM
Thu, Aug 5
11:00 AM
Thu, Aug 5
12:00 PM
Thu, Aug 5
1:00 PM
Thu, Aug 5
2:00 PM
Thu, Aug 5
3:00 PM
Thu, Aug 5
4:00 PM
Thu, Aug 5
5:00 PM
Thu, Aug 5
6:00 PM
Thu, Aug 5
7:00 PM
Thu, Aug 5
8:00 PM
Thu, Aug 5
9:00 PM
Thu, Aug 5
10:00 PM
Thu, Aug 5
11:00 PM
Fri, Aug 6
12:00 AM
Fri, Aug 6
1:00 AM
Fri, Aug 6
2:00 AM
Fri, Aug 6
3:00 AM
Fri, Aug 6
4:00 AM
Fri, Aug 6
5:00 AM
Fri, Aug 6
6:00 AM
Fri, Aug 6
7:00 AM
Fri, Aug 6
8:00 AM
Fri, Aug 6
9:00 AM
Fri, Aug 6
10:00 AM
Fri, Aug 6
11:00 AM
Fri, Aug 6
12:00 PM
Fri, Aug 6
1:00 PM
Fri, Aug 6
2:00 PM
Fri, Aug 6
3:00 PM
Fri, Aug 6
4:00 PM
Fri, Aug 6
5:00 PM
Fri, Aug 6
6:00 PM
Fri, Aug 6
7:00 PM
Fri, Aug 6
8:00 PM
Fri, Aug 6
9:00 PM
Condition
Clouds

Clear

Clouds

Clouds

Clouds

Clouds

Clouds

Rain

Rain

Rain

Clouds

Clouds

Clouds

Clouds

Clouds

Clouds

Clouds

Clouds

Clouds

Clouds

Clouds

Clouds

Clouds

Clouds

Clouds

Clouds

Clouds

Rain

Rain

Rain

Clouds

Clouds

Clouds

Rain

Clear

Clear

Clouds

Clouds

Rain

Rain

Rain

Rain

Rain

Rain

Rain

Clouds

Clouds

Clouds
Temperature 76°F75°F76°F76°F77°F77°F77°F76°F76°F76°F77°F79°F80°F81°F82°F84°F86°F88°F89°F89°F87°F85°F83°F82°F81°F80°F78°F78°F77°F77°F76°F76°F76°F76°F78°F81°F83°F86°F87°F88°F89°F86°F83°F84°F84°F83°F82°F82°F
Feels Like 77°F77°F77°F78°F78°F78°F78°F77°F77°F77°F78°F80°F80°F85°F86°F88°F90°F92°F93°F93°F92°F89°F87°F85°F84°F80°F79°F79°F78°F78°F78°F77°F77°F77°F79°F85°F89°F92°F94°F95°F95°F92°F89°F90°F89°F88°F87°F86°F
Cloudiness 21%1%21%41%60%80%100%100%100%100%100%99%100%100%100%100%100%90%77%77%80%83%89%93%95%91%91%89%100%100%100%100%99%96%5%7%31%46%50%51%73%80%76%75%75%68%55%50%
Visibility 6 mi6 mi6 mi6 mi6 mi6 mi6 mi6 mi6 mi6 mi6 mi6 mi6 mi6 mi6 mi6 mi6 mi6 mi6 mi6 mi6 mi6 mi6 mi6 mi6 mi6 mi6 mi6 mi6 mi6 mi6 mi6 mi6 mi6 mi6 mi6 mi6 mi6 mi6 mi6 mi6 mi6 mi6 mi6 mi6 mi6 mi6 mi6 mi
Precipitation 59%59%56%47%21%41%41%43%42%42%30%34%34%34%34%34%20%20%20%16%16%16%41%41%36%36%35%43%27%26%23%23%27%29%36%27%25%25%25%40%55%59%59%52%48%51%5%8%
Humidity 89%93%90%87%84%83%82%83%84%83%78%74%71%69%67%63%59%53%51%52%58%61%61%60%62%66%71%74%76%78%80%81%83%83%80%75%69%63%61%59%58%63%73%69%68%67%69%70%
Dew Point 72°F73°F73°F72°F72°F71°F71°F71°F70°F70°F70°F69°F70°F70°F70°F70°F69°F68°F68°F69°F70°F70°F68°F67°F67°F68°F68°F69°F69°F69°F70°F70°F70°F70°F71°F72°F72°F72°F71°F72°F71°F72°F73°F72°F72°F71°F71°F71°F
Pressure 29.97"29.97"29.97"29.97"29.94"29.94"29.94"29.94"29.97"30"30"30.03"30.03"30.03"30.03"30"30"29.97"29.97"29.94"29.97"29.97"30"30"30"30"30"30"30"30"29.97"29.97"30"30.03"30.03"30.03"30.03"30.03"30.03"30"30"30"30"30"30"30"30"30.03"
Wind Speed 4.7 mph5.6 mph5.6 mph5.8 mph6.6 mph6.3 mph6.4 mph6.8 mph7.4 mph7.9 mph8.3 mph8.8 mph9 mph9.5 mph9.8 mph9.8 mph9.3 mph9.2 mph8.5 mph8.5 mph7.7 mph8 mph10.1 mph10.3 mph9.3 mph8.1 mph7.7 mph7.1 mph6.5 mph6.4 mph7.6 mph7.8 mph6.4 mph5.7 mph5.6 mph4.4 mph3.8 mph2.8 mph1.8 mph3.4 mph5.4 mph9.7 mph10.8 mph10.4 mph10 mph9.7 mph9.2 mph8.9 mph
Wind
Direction
60°
ENE
72°
ENE
75°
ENE
68°
ENE
59°
ENE
44°
NE
37°
NE
29°
NNE
31°
NNE
30°
NNE
37°
NE
45°
NE
52°
NE
53°
NE
53°
NE
50°
NE
44°
NE
53°
NE
75°
ENE
88°
E
97°
E
84°
E
65°
ENE
62°
ENE
63°
ENE
57°
ENE
46°
NE
40°
NE
35°
NE
30°
NNE
31°
NNE
34°
NE
31°
NNE
23°
NNE
27°
NNE
20°
NNE

N
329°
NNW
261°
W
216°
SW
199°
SSW
199°
SSW
208°
SSW
215°
SW
216°
SW
219°
SW
219°
SW
216°
SW

Daily Forecast

Date High Low Precip. Humidity
Today
Aug 4

Rain
86 °F
75 °F
94%
58%
Thursday
Aug 5

Rain
89 °F
76 °F
56%
67%
Friday
Aug 6

Rain
88 °F
76 °F
59%
61%
Saturday
Aug 7

Rain
87 °F
79 °F
73%
60%
Sunday
Aug 8

Rain
88 °F
79 °F
99%
61%
Monday
Aug 9

Rain
89 °F
81 °F
21%
55%
Tuesday
Aug 10

Clouds
90 °F
80 °F
0%
53%
Wednesday
Aug 11

Clouds
90 °F
81 °F
12%
55%
Thursday
Aug 12

Clouds
91 °F
81 °F
0%
53%
Friday
Aug 13

Clouds
91 °F
80 °F
0%
52%
Saturday
Aug 14

Rain
91 °F
81 °F
29%
52%
Sunday
Aug 15

Rain
90 °F
81 °F
69%
57%
Monday
Aug 16

Rain
91 °F
78 °F
99%
53%
Tuesday
Aug 17

Rain
91 °F
77 °F
96%
52%
Wednesday
Aug 18

Rain
90 °F
79 °F
70%
56%
Thursday
Aug 19

Rain
89 °F
76 °F
39%
58%

Temperature 8-14 Day Outlook



Precipitation 8-14 Day Outlook




Quick Links
Pensacola - Santa Rosa Island News
Pensacola - Santa Rosa Island Photos
Pensacola - Santa Rosa Island Videos




About Us
Contact Us
Site Map
Search Site
Advertise With Us
   
Pensacola.USGulf.info
THE PENSACOLA - SANTA ROSA ISLAND WEBSITE

Copyright 2021, Coastal Town
Privacy    |    Legal